Location: Recife
(8.0585°S, 34.8848°W)
Time: 13:57:59
(UTC-03:00)

Vanguard 2 - Pass Details

Date: 18 April 2026
Orbit: 553 x 2895 km, 32.9° (Epoch: 13 May)

Event Time Altitude Azimuth Distance (km) Brightness Sun altitude
Rises 21:54:01 0° 265° (W) 5,613 12.2 -68.9°
Reaches altitude 10° 21:57:57 10° 255° (WSW) 4,909 11.8 -69.8°
Enters shadow 22:00:51 18° 247° (WSW) 4,484 11.4 -70.5°
